Location: Newark
(43.6583°N, 1.6617°E)
Time: 03:32:07
(UTC+00:00)

Vanguard 1 Rocket - Pass Details

Date: 24 August 2019
Orbit: 651 x 4225 km, 34.3° (Epoch: 20 September)

Event Time Altitude Azimuth Distance (km) Brightness Sun altitude
Rises 00:29:12 0° 209° (SSW) 3,168 - -34.6°
Reaches altitude 10° 00:33:27 10° 173° (S) 2,056 - -34.4°
Maximum altitude 00:34:45 11° 155° (SSE) 1,969 - -34.4°
Drops below altitude 10° 00:36:03 10° 137° (SE) 2,052 - -34.3°
Sets 00:40:17 0° 101° (E) 3,149 - -34.2°
